�������l�o���
Date,Time,MP-1(��Sv/h),MP-2(��Sv/h),MP-3(��Sv/h),MP-4(��Sv/h),MP-5(��Sv/h),MP-6(��Sv/h),MP-7(��Sv/h),MP-8(��Sv/h),����,����(m/s),���J
2020/05/08,00:00,0.703,1.022,0.668,1.245,0.891,0.399,0.701,0.661,-,CALM,��
2020/05/08,00:10,0.704,1.024,0.670,1.245,0.891,0.398,0.702,0.662,�k�k��,2.5,��
2020/05/08,00:20,0.704,1.022,0.670,1.246,0.890,0.399,0.700,0.660,�k��,3.0,��
2020/05/08,00:30,0.706,1.021,0.671,1.244,0.890,0.398,0.701,0.662,�k�k��,3.8,��
2020/05/08,00:40,0.702,1.024,0.669,1.244,0.889,0.398,0.700,0.661,�k�k��,2.9,��
2020/05/08,00:50,0.703,1.021,0.669,1.244,0.891,0.398,0.699,0.661,�k�k��,3.8,��
2020/05/08,01:00,0.705,1.022,0.670,1.245,0.890,0.398,0.701,0.661,�k�k��,5.1,��
2020/05/08,01:10,0.705,1.021,0.670,1.241,0.891,0.399,0.700,0.662,�k��,5.4,��
2020/05/08,01:20,0.704,1.022,0.670,1.246,0.891,0.399,0.701,0.661,�k��,6.0,��
2020/05/08,01:30,0.707,1.021,0.673,1.247,0.890,0.399,0.700,0.660,�k��,5.5,��
2020/05/08,01:40,0.704,1.023,0.668,1.247,0.891,0.398,0.700,0.661,�k��,5.6,��
2020/05/08,01:50,0.702,1.022,0.671,1.243,0.890,0.399,0.701,0.662,�k��,6.3,��
2020/05/08,02:00,0.705,1.023,0.671,1.245,0.892,0.400,0.700,0.661,�k��,7.3,��
2020/05/08,02:10,0.705,1.024,0.671,1.244,0.890,0.398,0.700,0.662,�k��,8.0,��
2020/05/08,02:20,0.704,1.023,0.670,1.245,0.891,0.398,0.702,0.661,�k��,7.7,��
2020/05/08,02:30,0.705,1.023,0.670,1.244,0.890,0.400,0.702,0.661,�k��,7.4,��
2020/05/08,02:40,0.703,1.024,0.670,1.244,0.889,0.398,0.700,0.664,�k��,6.3,��
2020/05/08,02:50,0.704,1.023,0.670,1.244,0.889,0.398,0.699,0.660,�k��,4.3,��
2020/05/08,03:00,0.704,1.024,0.672,1.243,0.890,0.399,0.701,0.662,��,0.6,��
2020/05/08,03:10,0.704,1.023,0.671,1.244,0.890,0.399,0.700,0.662,���k��,2.9,��
2020/05/08,03:20,0.705,1.021,0.670,1.245,0.890,0.396,0.700,0.661,��,1.4,��
2020/05/08,03:30,0.704,1.022,0.670,1.245,0.892,0.398,0.699,0.660,��,1.5,��
2020/05/08,03:40,0.704,1.022,0.671,1.244,0.891,0.399,0.701,0.662,��,2.2,��
2020/05/08,03:50,0.703,1.022,0.669,1.245,0.888,0.399,0.701,0.660,��,1.5,��
2020/05/08,04:00,0.704,1.022,0.670,1.242,0.890,0.399,0.701,0.661,��,1.7,��
2020/05/08,04:10,0.704,1.020,0.670,1.243,0.889,0.398,0.699,0.662,��쐼,1.4,��
2020/05/08,04:20,0.705,1.021,0.670,1.244,0.890,0.398,0.700,0.660,��,2.0,��
2020/05/08,04:30,0.705,1.019,0.670,1.242,0.889,0.399,0.701,0.661,���k��,2.0,��
2020/05/08,04:40,0.703,1.021,0.671,1.246,0.891,0.398,0.701,0.661,���k��,1.9,��
2020/05/08,04:50,0.703,1.021,0.670,1.241,0.887,0.397,0.699,0.661,���k��,3.4,��
2020/05/08,05:00,0.701,1.022,0.669,1.242,0.886,0.398,0.699,0.660,���k��,5.0,��
2020/05/08,05:10,0.705,1.022,0.670,1.245,0.889,0.397,0.700,0.661,���k��,5.8,��
2020/05/08,05:20,0.704,1.022,0.668,1.242,0.890,0.399,0.698,0.661,���k��,6.1,��
2020/05/08,05:30,0.704,1.021,0.671,1.241,0.890,0.398,0.698,0.662,���k��,5.4,��
2020/05/08,05:40,0.704,1.023,0.671,1.243,0.888,0.397,0.700,0.661,��,4.1,��
2020/05/08,05:50,0.704,1.022,0.667,1.243,0.891,0.399,0.698,0.661,���쐼,2.9,��
2020/05/08,06:00,0.704,1.024,0.670,1.245,0.889,0.398,0.698,0.662,��,1.5,��
2020/05/08,06:10,0.704,1.024,0.671,1.241,0.890,0.397,0.700,0.661,���쐼,1.5,��
2020/05/08,06:20,0.705,1.021,0.673,1.242,0.888,0.400,0.700,0.661,�쐼,1.4,��
2020/05/08,06:30,0.705,1.023,0.669,1.245,0.889,0.399,0.701,0.661,���쐼,1.2,��
2020/05/08,06:40,0.706,1.023,0.671,1.244,0.889,0.398,0.702,0.663,��,2.2,��
2020/05/08,06:50,0.706,1.024,0.671,1.244,0.891,0.398,0.701,0.661,��,2.5,��
2020/05/08,07:00,0.708,1.021,0.671,1.246,0.890,0.399,0.703,0.664,��쐼,0.9,��
2020/05/08,07:10,0.706,1.021,0.669,1.244,0.888,0.397,0.701,0.662,��쓌,2.2,��
2020/05/08,07:20,0.706,1.021,0.672,1.245,0.890,0.397,0.703,0.661,���k��,0.6,��
2020/05/08,07:30,0.706,1.022,0.672,1.244,0.891,0.399,0.703,0.661,�k�k��,2.3,��
2020/05/08,07:40,0.708,1.024,0.672,1.245,0.891,0.398,0.703,0.661,�k�k��,3.1,��
2020/05/08,07:50,0.706,1.021,0.672,1.246,0.893,0.398,0.702,0.663,���k��,0.9,��
2020/05/08,08:00,0.708,1.025,0.672,1.247,0.892,0.397,0.702,0.661,�쓌,1.2,��
2020/05/08,08:10,0.708,1.022,0.673,1.247,0.890,0.399,0.702,0.661,���쓌,1.4,��
2020/05/08,08:20,0.707,1.023,0.671,1.245,0.889,0.398,0.702,0.661,�쓌,2.0,��
2020/05/08,08:30,0.709,1.023,0.671,1.246,0.891,0.398,0.702,0.660,���쓌,2.6,��
2020/05/08,08:40,0.709,1.022,0.672,1.246,0.891,0.398,0.701,0.659,��쓌,2.9,��
2020/05/08,08:50,0.709,1.022,0.671,1.245,0.891,0.398,0.702,0.658,�쓌,4.4,��
2020/05/08,09:00,0.708,1.022,0.674,1.246,0.891,0.399,0.701,0.659,�쓌,4.0,��
2020/05/08,09:10,0.709,1.023,0.672,1.245,0.890,0.399,0.700,0.660,�쓌,4.3,��
2020/05/08,09:20,0.707,1.021,0.671,1.247,0.893,0.400,0.700,0.658,�쓌,3.2,��
2020/05/08,09:30,0.707,1.023,0.673,1.246,0.891,0.398,0.702,0.660,�쓌,4.0,��
2020/05/08,09:40,0.707,1.022,0.670,1.247,0.892,0.398,0.699,0.660,���쓌,3.1,��
2020/05/08,09:50,0.710,1.021,0.670,1.247,0.894,0.399,0.700,0.661,�쓌,3.5,��
2020/05/08,10:00,0.707,1.024,0.673,1.251,0.893,0.398,0.700,0.661,�쓌,4.1,��
2020/05/08,10:10,0.708,1.024,0.670,1.248,0.893,0.399,0.702,0.660,���쓌,3.5,��
2020/05/08,10:20,0.708,1.025,0.672,1.248,0.894,0.400,0.701,0.660,�쓌,4.5,��
2020/05/08,10:30,0.708,1.024,0.672,1.248,0.893,0.400,0.701,0.661,�쓌,3.2,��
2020/05/08,10:40,0.707,1.024,0.673,1.250,0.893,0.399,0.702,0.660,�쓌,4.3,��
2020/05/08,10:50,0.707,1.026,0.673,1.249,0.893,0.400,0.702,0.660,�쓌,3.6,��
2020/05/08,11:00,0.708,1.025,0.672,1.247,0.893,0.399,0.700,0.661,�쓌,5.2,��
2020/05/08,11:10,0.709,1.025,0.673,1.250,0.893,0.399,0.702,0.660,�쓌,3.5,��
2020/05/08,11:20,0.709,1.027,0.670,1.249,0.895,0.399,0.702,0.661,��쓌,4.5,��
2020/05/08,11:30,0.708,1.029,0.672,1.247,0.894,0.399,0.702,0.660,��쓌,4.3,��
2020/05/08,11:40,0.708,1.025,0.672,1.247,0.895,0.400,0.703,0.662,�쓌,4.5,��
2020/05/08,11:50,0.709,1.025,0.672,1.247,0.894,0.399,0.702,0.661,��쓌,5.1,��
2020/05/08,12:00,0.710,1.030,0.671,1.246,0.897,0.399,0.700,0.662,��쓌,6.1,��
2020/05/08,12:10,0.710,1.029,0.671,1.248,0.896,0.400,0.702,0.661,��쓌,4.6,��
2020/05/08,12:20,0.709,1.028,0.672,1.247,0.895,0.400,0.703,0.662,��쓌,4.6,��
2020/05/08,12:30,0.710,1.030,0.673,1.247,0.896,0.399,0.703,0.660,�쓌,4.9,��
2020/05/08,12:40,0.710,1.030,0.675,1.246,0.900,0.400,0.702,0.663,�쓌,5.1,��
2020/05/08,12:50,0.708,1.030,0.671,1.246,0.897,0.401,0.703,0.662,��쓌,5.7,��
2020/05/08,13:00,0.710,1.031,0.672,1.249,0.897,0.401,0.703,0.662,��쓌,4.9,��
2020/05/08,13:10,0.711,1.029,0.672,1.249,0.896,0.400,0.702,0.662,��쓌,6.5,��
2020/05/08,13:20,0.710,1.029,0.672,1.250,0.898,0.400,0.702,0.661,-,CALM,��
2020/05/08,13:30,0.712,1.027,0.673,1.251,0.897,0.401,0.703,0.662,��쓌,7.2,��
2020/05/08,13:40,0.710,1.027,0.675,1.252,0.896,0.399,0.702,0.662,��쓌,7.8,��
2020/05/08,13:50,0.709,1.028,0.674,1.251,0.897,0.401,0.703,0.661,��쓌,7.0,��
2020/05/08,14:00,0.711,1.028,0.674,1.249,0.895,0.401,0.704,0.661,��쓌,8.8,��
2020/05/08,14:10,0.712,1.029,0.674,1.251,0.896,0.402,0.701,0.661,��쓌,8.4,��
2020/05/08,14:20,0.711,1.028,0.675,1.248,0.898,0.403,0.704,0.660,��,6.5,��
2020/05/08,14:30,0.710,1.030,0.673,1.249,0.899,0.401,0.703,0.660,��쓌,7.7,��
2020/05/08,14:40,0.710,1.031,0.674,1.251,0.898,0.402,0.703,0.660,��쓌,9.6,��
2020/05/08,14:50,0.712,1.031,0.674,1.250,0.899,0.403,0.703,0.661,��쓌,10.5,��
2020/05/08,15:00,0.711,1.033,0.673,1.248,0.899,0.401,0.703,0.662,��쓌,9.6,��
2020/05/08,15:10,0.710,1.032,0.675,1.250,0.899,0.403,0.702,0.664,��쓌,10.2,��
2020/05/08,15:20,0.712,1.029,0.675,1.248,0.897,0.402,0.702,0.663,��쓌,10.5,��
2020/05/08,15:30,0.711,1.031,0.673,1.249,0.898,0.402,0.702,0.661,��쓌,10.2,��
2020/05/08,15:40,0.711,1.033,0.673,1.248,0.897,0.403,0.702,0.661,��쓌,10.6,��
2020/05/08,15:50,0.713,1.031,0.674,1.250,0.899,0.402,0.703,0.661,��쓌,11.3,��
2020/05/08,16:00,0.712,1.032,0.673,1.248,0.901,0.402,0.703,0.661,��쓌,10.5,��
2020/05/08,16:10,0.711,1.029,0.673,1.249,0.898,0.401,0.704,0.659,��쓌,9.5,��
2020/05/08,16:20,0.711,1.033,0.673,1.250,0.899,0.402,0.703,0.660,��쓌,12.8,��
2020/05/08,16:30,0.710,1.032,0.672,1.252,0.900,0.401,0.702,0.660,��쓌,12.8,��
2020/05/08,16:40,0.710,1.035,0.675,1.248,0.897,0.401,0.703,0.662,��쓌,11.6,��
2020/05/08,16:50,0.710,1.034,0.674,1.249,0.900,0.403,0.703,0.662,��쓌,12.7,��
2020/05/08,17:00,0.712,1.034,0.674,1.249,0.897,0.402,0.702,0.661,��,11.8,��
2020/05/08,17:10,0.712,1.036,0.674,1.251,0.898,0.403,0.701,0.662,��쓌,10.8,��
2020/05/08,17:20,0.712,1.032,0.674,1.250,0.897,0.402,0.702,0.662,��,10.9,��
2020/05/08,17:30,0.712,1.034,0.674,1.251,0.897,0.403,0.702,0.662,��,10.6,��
2020/05/08,17:40,0.712,1.034,0.673,1.252,0.897,0.403,0.701,0.664,��,11.0,��
2020/05/08,17:50,0.711,1.036,0.674,1.254,0.899,0.401,0.701,0.664,��,10.0,��
2020/05/08,18:00,0.711,1.036,0.672,1.253,0.899,0.402,0.702,0.664,��쓌,10.9,��
2020/05/08,18:10,0.711,1.034,0.674,1.252,0.900,0.403,0.701,0.665,��,10.8,��
2020/05/08,18:20,0.712,1.036,0.674,1.252,0.898,0.403,0.702,0.664,��,9.0,��
2020/05/08,18:30,0.714,1.036,0.673,1.251,0.897,0.403,0.701,0.665,��,8.5,��
2020/05/08,18:40,0.715,1.036,0.674,1.253,0.901,0.403,0.701,0.663,��,8.6,��
2020/05/08,18:50,0.716,1.036,0.676,1.254,0.898,0.404,0.701,0.665,��,9.1,��
2020/05/08,19:00,0.714,1.037,0.676,1.253,0.899,0.404,0.703,0.665,��,9.0,��
2020/05/08,19:10,0.712,1.037,0.678,1.251,0.899,0.404,0.702,0.666,��,10.2,��
2020/05/08,19:20,0.714,1.037,0.676,1.253,0.899,0.403,0.702,0.664,��,9.7,��
2020/05/08,19:30,0.715,1.039,0.676,1.252,0.903,0.405,0.701,0.663,��,8.7,��
2020/05/08,19:40,0.714,1.039,0.677,1.252,0.900,0.403,0.703,0.665,��쐼,6.5,��
2020/05/08,19:50,0.713,1.036,0.676,1.252,0.901,0.405,0.704,0.664,��쐼,8.4,��
2020/05/08,20:00,0.712,1.039,0.676,1.251,0.901,0.405,0.704,0.663,��,10.2,��
2020/05/08,20:10,0.715,1.036,0.676,1.252,0.900,0.404,0.704,0.664,��,9.3,��
2020/05/08,20:20,0.714,1.038,0.677,1.253,0.902,0.404,0.704,0.665,��,8.6,��
2020/05/08,20:30,0.714,1.035,0.676,1.253,0.898,0.405,0.703,0.664,��,7.8,��
2020/05/08,20:40,0.713,1.038,0.677,1.253,0.902,0.403,0.704,0.663,��,7.6,��
2020/05/08,20:50,0.715,1.038,0.678,1.251,0.901,0.403,0.705,0.665,��쐼,6.8,��
2020/05/08,21:00,0.713,1.036,0.674,1.253,0.901,0.404,0.704,0.665,��쐼,7.8,��
2020/05/08,21:10,0.713,1.035,0.676,1.252,0.901,0.404,0.703,0.663,��,8.0,��
2020/05/08,21:20,0.714,1.034,0.675,1.254,0.900,0.403,0.704,0.663,��쐼,6.2,��
2020/05/08,21:30,0.711,1.036,0.675,1.251,0.900,0.404,0.703,0.663,��쐼,6.0,��
2020/05/08,21:40,0.712,1.035,0.674,1.252,0.900,0.403,0.704,0.664,��,7.2,��
2020/05/08,21:50,0.711,1.037,0.675,1.254,0.900,0.403,0.704,0.664,��,7.8,��
2020/05/08,22:00,0.715,1.035,0.675,1.251,0.900,0.405,0.705,0.664,��,9.3,��
2020/05/08,22:10,0.713,1.036,0.676,1.255,0.901,0.405,0.704,0.663,��,9.0,��
2020/05/08,22:20,0.714,1.036,0.676,1.254,0.901,0.403,0.707,0.664,��,7.9,��
2020/05/08,22:30,0.713,1.035,0.676,1.252,0.899,0.404,0.705,0.665,��,9.9,��
2020/05/08,22:40,0.712,1.035,0.676,1.250,0.901,0.403,0.705,0.664,��,9.4,��
2020/05/08,22:50,0.714,1.036,0.676,1.252,0.902,0.404,0.703,0.663,��쐼,9.6,��
2020/05/08,23:00,0.714,1.038,0.677,1.255,0.903,0.404,0.705,0.663,��,9.7,��
2020/05/08,23:10,0.713,1.035,0.676,1.255,0.899,0.403,0.705,0.664,��쐼,9.2,��
2020/05/08,23:20,0.714,1.034,0.678,1.253,0.901,0.404,0.705,0.665,��,8.4,��
2020/05/08,23:30,0.714,1.036,0.675,1.251,0.901,0.404,0.705,0.665,��,8.3,��
2020/05/08,23:40,0.714,1.035,0.675,1.253,0.900,0.405,0.704,0.664,��,7.9,��
2020/05/08,23:50,0.714,1.036,0.676,1.252,0.901,0.404,0.703,0.664,��쐼,5.9,��
